Regional Weather Roundup
Issued by NWS

Home | Current Version | Previous Version | Graphics & Text | Print | Product List | Glossary On
Versions: 1 2 3 4 5 6 7 8 9 10 11 12 13 14 15 16 17 18 19 20 21 22 23 24 25 26 27 28 29 30 31 32 33 34 35 36 37 38 39 40 41 42 43 44 45 46 47 48 49 50
000
ASUS44 KMEG 291710
RWRTN
TENNESSEE HOURLY STATE WEATHER ROUNDUP
NATIONAL WEATHER SERVICE MEMPHIS TN
1200 PM CDT WED JUL 29 2015

TNZ002-004-019-021-049-052-054-088>092-291800-
WEST TENNESSEE

CITY           SKY/WX    TMP DP  RH WIND       PRES   REMARKS
MEMPHIS INTL   PTSUNNY   94  76  55 NW10      30.04S HX 106
NWS MEMPHIS      N/A     93 N/A N/A MISG        N/A
JACKSON        SUNNY     95  77  55 NW8       30.03F HX 109
DYERSBURG        N/A    N/A N/A N/A MISG        N/A
PARIS          SUNNY     90  79  70 W3        30.04S HX 105
LEXINGTON      SUNNY     93  79  62 VRB3      30.03S HX 110
$$

TNZ008-025-027-028-033-062-065-066-291800-
NORTH MIDDLE TENNESSEE

CITY           SKY/WX    TMP DP  RH WIND       PRES   REMARKS
NASHVILLE      PTSUNNY   88  74  63 VRB7      30.04F HX  96
CLARKSVILLE    CLOUDY    76  73  91 W7        30.03S
SMYRNA         MOSUNNY   93  76  57 VRB6      30.05F HX 105
CROSSVILLE     MOSUNNY   84  71  65 NW5       30.10S
$$

TNZ061-075-076-078-094-096-097-291800-
SOUTH MIDDLE TENNESSEE

CITY           SKY/WX    TMP DP  RH WIND       PRES   REMARKS
FAYETTEVILLE   PTSUNNY   82  72  69 NW9       30.08S
TULLAHOMA      MOSUNNY   84  73  70 NW6       30.09S HX  91
WINCHESTER     MOSUNNY   88  73  62 N6        30.07R HX  96
MCMINNVILLE    PTSUNNY   86  77  74 CALM      30.07S HX  97
COLUMBIA       SUNNY     75  75 100 SW3       30.05F
SHELBYVILLE    PTSUNNY   88  77  70 W8        30.08S HX 100
$$

TNZ017-018-042-046-047-291800-
NORTHEAST TENNESSEE

CITY           SKY/WX    TMP DP  RH WIND       PRES   REMARKS
TRI CITIES     PTSUNNY   85  70  60 VRB3      30.07F
ELIZABETHTON   SUNNY     82  72  69 W6        30.07S
$$

TNZ012-013-036-069-073-074-291800-
CENTRAL EAST TENNESSEE

CITY           SKY/WX    TMP DP  RH WIND       PRES   REMARKS
KNOXVILLE      MOSUNNY   87  71  58 N5        30.04S HX  93
OAK RIDGE      FAIR      89  72  56 E5        30.05F HX  96
GATLINBURG       N/A     86  72  62 VRB5      30.04S HX  92
MORRISTOWN     SUNNY     84  72  65 CALM      30.07S
$$

TNZ083-085-099-291800-
SOUTHEAST TENNESSEE

CITY           SKY/WX    TMP DP  RH WIND       PRES   REMARKS
CHATTANOOGA    PTSUNNY   90  73  57 NE6       30.03F HX  98
$$

SKY/WX REPORTED AS FAIR MEANS FEW OR NO CLOUDS BELOW
12 THOUSAND FEET.



USA.gov is the U.S. government's official web portal to all federal, state and local government web resources and services.